Location: Bruderhein
(53.8035°N, 112.9265°W)
Time: 13:36:12
(UTC+00:00)

Gurwin Techsat 1B - Visible Passes

Search period start: 16 April 2024 00:00
Search period end: 26 April 2024 00:00
Orbit: 811 x 813 km, 98.9° (Epoch: 15 April)

Date Brightness Start Highest point End Pass type
(mag) Time Alt. Az. Time Alt. Az. Time Alt. Az.
16 Apr 10.4 10:16:35 10° NE 10:21:08 28° E 10:25:39 10° SSE visible
17 Apr 11.0 09:53:55 10° NE 09:57:39 19° E 10:01:22 10° SE visible
17 Apr 8.7 11:32:52 10° NNE 11:38:14 85° WNW 11:43:34 10° SSW visible
18 Apr 11.2 09:31:50 10° ENE 09:34:05 13° E 09:36:19 10° ESE visible
18 Apr 9.0 11:09:41 10° NNE 11:15:00 67° ESE 11:20:18 10° S visible
19 Apr 9.6 10:46:35 10° NNE 10:51:43 45° E 10:56:48 10° S visible
20 Apr 10.3 10:23:37 10° NNE 10:28:20 31° E 10:33:01 10° SSE visible
21 Apr 10.8 10:00:51 10° NE 10:04:53 21° E 10:08:52 10° SE visible
22 Apr 11.2 09:38:32 10° NE 09:41:19 14° E 09:44:07 10° ESE visible
22 Apr 8.9 11:16:48 10° NNE 11:22:09 75° ESE 11:27:28 10° S visible
23 Apr 9.5 10:53:40 10° NNE 10:58:52 51° E 11:04:02 10° S visible
24 Apr 10.1 10:30:39 10° NNE 10:35:31 34° E 10:40:20 10° SSE visible
25 Apr 10.7 10:07:49 10° NE 10:12:04 24° E 10:16:18 10° SE visible
